| time (UTC) | temp F | wind direction | speed MPH | gust MPH | rain 1hr in | rain 24hr in | rain mn in | humidity % | barometer mb |
| 20260508163117 | 54 | 50 | 6.0 | 13.0 | 0.00 | 1.12 | 0.00 | 68 | 1001.8 |
| 20260508161558 | 54 | 36 | 3.0 | 11.0 | 0.00 | 1.12 | 0.00 | 71 | 1001.7 |
| 20260508160054 | 53 | 33 | 5.0 | 9.0 | 0.00 | 1.12 | 0.00 | 72 | 1002.0 |
| 20260508154555 | 53 | 51 | 3.0 | 10.0 | 0.00 | 1.12 | 0.00 | 73 | 1002.0 |
| 20260508153051 | 53 | 26 | 3.0 | 9.0 | 0.00 | 1.12 | 0.00 | 74 | 1002.2 |
| 20260508151547 | 53 | 65 | 5.0 | 10.0 | 0.00 | 1.12 | 0.00 | 77 | 1002.0 |
| 20260508150044 | 53 | 56 | 5.0 | 10.0 | 0.00 | 1.12 | 0.00 | 80 | 1002.0 |
| 20260508144541 | 52 | 37 | 5.0 | 12.0 | 0.00 | 1.12 | 0.00 | 81 | 1002.2 |
| 20260508143038 | 51 | 59 | 5.0 | 12.0 | 0.00 | 1.12 | 0.00 | 83 | 1002.3 |
| 20260508141537 | 51 | 9 | 5.0 | 11.0 | 0.00 | 1.12 | 0.00 | 86 | 1002.4 |
| 20260508140033 | 50 | 66 | 5.0 | 12.0 | 0.00 | 1.12 | 0.00 | 89 | 1002.4 |
| 20260508134536 | 49 | 5 | 4.0 | 9.0 | 0.00 | 1.12 | 0.00 | 90 | 1002.8 |
| 20260508133030 | 49 | 55 | 2.0 | 10.0 | 0.00 | 1.12 | 0.00 | 92 | 1002.9 |
| 20260508131529 | 49 | 48 | 5.0 | 9.0 | 0.00 | 1.12 | 0.00 | 93 | 1002.9 |
| 20260508130027 | 49 | 355 | 4.0 | 8.0 | 0.00 | 1.12 | 0.00 | 95 | 1002.7 |
| 20260508124524 | 48 | 5 | 3.0 | 6.0 | 0.00 | 1.12 | 0.00 | 96 | 1002.5 |
| 20260508123029 | 46 | 44 | 2.0 | 9.0 | 0.00 | 1.12 | 0.00 | 97 | 1002.7 |
| 20260508121521 | 46 | 28 | 2.0 | 10.0 | 0.00 | 1.12 | 0.00 | 98 | 1002.4 |
| 20260508120019 | 45 | 52 | 3.0 | 7.0 | 0.00 | 1.12 | 0.00 | 99 | 1002.8 |
| 20260508114519 | 44 | 11 | 3.0 | 5.0 | 0.00 | 1.17 | 0.00 | 100 | 1003.1 |
| 20260508113019 | 44 | 28 | 3.0 | 7.0 | 0.00 | 1.17 | 0.00 | 100 | 1003.2 |
| 20260508111621 | 43 | 53 | 3.0 | 8.0 | 0.00 | 1.17 | 0.00 | 100 | 1002.9 |
| 20260508110016 | 43 | 56 | 0.0 | 5.0 | 0.00 | 1.17 | 0.00 | 100 | 1003.0 |
| 20260508104515 | 42 | 63 | 1.0 | 4.0 | 0.00 | 1.30 | 0.00 | 100 | 1003.0 |
| 20260508103014 | 42 | 63 | 1.0 | 4.0 | 0.00 | 1.30 | 0.00 | 100 | 1003.3 |
| 20260508101524 | 42 | 36 | 1.0 | 5.0 | 0.00 | 1.30 | 0.00 | 100 | 1003.2 |
| 20260508100012 | 42 | 53 | 0.0 | 5.0 | 0.00 | 1.30 | 0.00 | 100 | 1003.1 |
| 20260508094510 | 42 | 45 | 2.0 | 6.0 | 0.00 | 1.35 | 0.00 | 100 | 1002.8 |
| 20260508093032 | 42 | 40 | 3.0 | 10.0 | 0.00 | 1.35 | 0.00 | 100 | 1002.8 |
| 20260508091508 | 42 | 53 | 2.0 | 9.0 | 0.00 | 1.35 | 0.00 | 100 | 1002.6 |
| 20260508090013 | 43 | 48 | 3.0 | 6.0 | 0.00 | 1.35 | 0.00 | 99 | 1002.4 |
| 20260508084503 | 43 | 30 | 1.0 | 5.0 | 0.00 | 1.37 | 0.00 | 100 | 1002.5 |
| 20260508083001 | 43 | 42 | 3.0 | 7.0 | 0.00 | 1.37 | 0.00 | 100 | 1002.4 |
| 20260508081616 | 44 | 70 | 2.0 | 6.0 | 0.00 | 1.37 | 0.00 | 100 | 1002.0 |
| 20260508080101 | 44 | 84 | 3.0 | 6.0 | 0.00 | 1.37 | 0.00 | 100 | 1002.3 |
| 20260508074556 | 45 | 65 | 3.0 | 6.0 | 0.00 | 1.40 | 0.00 | 99 | 1002.0 |
| 20260508073056 | 45 | 60 | 3.0 | 7.0 | 0.00 | 1.40 | 0.00 | 100 | 1002.0 |
| 20260508071551 | 45 | 104 | 0.0 | 3.0 | 0.00 | 1.40 | 0.00 | 100 | 1002.0 |
| 20260508070050 | 45 | 213 | 0.0 | 0.0 | 0.00 | 1.40 | 0.00 | 100 | 1001.9 |
| 20260508064549 | 46 | 213 | 0.0 | 0.0 | 0.00 | 1.40 | 0.00 | 100 | 1001.9 |
| 20260508063053 | 46 | 213 | 0.0 | 0.0 | 0.00 | 1.40 | 0.00 | 100 | 1001.9 |
| 20260508061548 | 46 | 213 | 0.0 | 0.0 | 0.00 | 1.40 | 0.00 | 100 | 1002.0 |
| 20260508060047 | 46 | 213 | 0.0 | 0.0 | 0.00 | 1.40 | 0.00 | 99 | 1002.0 |
| 20260508054605 | 46 | 213 | 0.0 | 0.0 | 0.00 | 1.40 | 0.00 | 100 | 1001.9 |
| 20260508053047 | 46 | 213 | 0.0 | 0.0 | 0.00 | 1.40 | 0.00 | 100 | 1002.1 |
| 20260508051546 | 46 | 213 | 0.0 | 0.0 | 0.00 | 1.40 | 0.00 | 100 | 1001.7 |
| 20260508050047 | 46 | 213 | 0.0 | 0.0 | 0.00 | 1.40 | 0.00 | 100 | 1001.8 |
| 20260508044555 | 46 | 213 | 0.0 | 0.0 | 0.00 | 1.40 | 0.00 | 99 | 1001.7 |
| 20260508043043 | 46 | 213 | 0.0 | 0.0 | 0.00 | 1.40 | 0.00 | 100 | 1001.8 |
| 20260508041550 | 47 | 213 | 0.0 | 0.0 | 0.00 | 1.40 | 0.00 | 100 | 1002.0 |
| 20260508040045 | 47 | 213 | 0.0 | 0.0 | 0.00 | 1.40 | 0.00 | 100 | 1002.1 |
| 20260508034540 | 46 | 213 | 0.0 | 0.0 | 0.00 | 1.40 | 0.00 | 100 | 1002.2 |
| 20260508033038 | 46 | 213 | 0.0 | 0.0 | 0.00 | 1.40 | 0.00 | 100 | 1002.2 |
| 20260508031536 | 45 | 213 | 0.0 | 0.0 | 0.00 | 1.40 | 0.00 | 100 | 1002.4 |
| 20260508030038 | 45 | 213 | 1.0 | 5.0 | 0.00 | 1.40 | 0.00 | 99 | 1002.7 |
| 20260508024530 | 45 | 272 | 1.0 | 7.0 | 0.00 | 1.40 | 1.40 | 99 | 1002.8 |
| 20260508023038 | 45 | 259 | 2.0 | 5.0 | 0.00 | 1.40 | 1.40 | 99 | 1002.6 |
| 20260508021532 | 46 | 238 | 2.0 | 9.0 | 0.00 | 1.40 | 1.40 | 99 | 1002.3 |
| 20260508020023 | 47 | 244 | 1.0 | 5.0 | 0.00 | 1.40 | 1.40 | 99 | 1002.3 |
| 20260508014522 | 47 | 234 | 0.0 | 3.0 | 0.00 | 1.40 | 1.40 | 99 | 1002.3 |
| 20260508013023 | 47 | 234 | 1.0 | 3.0 | 0.00 | 1.40 | 1.40 | 99 | 1002.5 |
| 20260508011521 | 47 | 234 | 0.0 | 0.0 | 0.00 | 1.40 | 1.40 | 99 | 1002.1 |
| 20260508010035 | 47 | 234 | 0.0 | 3.0 | 0.00 | 1.40 | 1.40 | 99 | 1002.5 |
| 20260508004523 | 47 | 228 | 1.0 | 4.0 | 0.00 | 1.40 | 1.40 | 98 | 1002.7 |
| 20260508003020 | 48 | 228 | 0.0 | 1.0 | 0.00 | 1.40 | 1.40 | 98 | 1002.6 |
| 20260508001526 | 48 | 228 | 0.0 | 3.0 | 0.00 | 1.40 | 1.40 | 98 | 1002.7 |
| 20260508000018 | 48 | 244 | 2.0 | 8.0 | 0.00 | 1.40 | 1.40 | 98 | 1002.6 |
| 20260507234611 | 49 | 241 | 0.0 | 3.0 | 0.00 | 1.40 | 1.40 | 98 | 1002.8 |
| 20260507233010 | 50 | 241 | 1.0 | 4.0 | 0.00 | 1.40 | 1.40 | 97 | 1002.9 |
| 20260507231510 | 51 | 231 | 1.0 | 7.0 | 0.00 | 1.40 | 1.40 | 98 | 1002.7 |
| 20260507230008 | 52 | 207 | 3.0 | 5.0 | 0.00 | 1.40 | 1.40 | 98 | 1002.9 |
| 20260507224510 | 52 | 234 | 1.0 | 4.0 | 0.00 | 1.40 | 1.40 | 98 | 1002.8 |
| 20260507223008 | 52 | 252 | 2.0 | 10.0 | 0.00 | 1.40 | 1.40 | 98 | 1002.9 |
| 20260507221507 | 51 | 238 | 1.0 | 5.0 | 0.00 | 1.40 | 1.40 | 97 | 1002.9 |
| 20260507220006 | 52 | 225 | 2.0 | 7.0 | 0.01 | 1.40 | 1.40 | 97 | 1003.3 |
| 20260507214505 | 52 | 219 | 2.0 | 7.0 | 0.01 | 1.40 | 1.40 | 97 | 1003.2 |
| 20260507213014 | 51 | 290 | 2.0 | 8.0 | 0.03 | 1.40 | 1.40 | 97 | 1003.2 |
| 20260507211504 | 51 | 265 | 6.0 | 14.0 | 0.08 | 1.40 | 1.40 | 97 | 1002.9 |
| 20260507210007 | 51 | 145 | 8.0 | 16.0 | 0.14 | 1.39 | 1.39 | 97 | 1001.8 |
| 20260507204611 | 51 | 135 | 9.0 | 17.0 | 0.23 | 1.39 | 1.39 | 97 | 1002.5 |
| 20260507203102 | 51 | 126 | 5.0 | 16.0 | 0.34 | 1.37 | 1.37 | 96 | 1003.4 |
| 20260507201555 | 51 | 137 | 7.0 | 16.0 | 0.46 | 1.32 | 1.32 | 97 | 1003.7 |
| 20260507200104 | 51 | 200 | 11.0 | 19.0 | 0.54 | 1.26 | 1.26 | 96 | 1004.0 |
| 20260507194549 | 51 | 131 | 9.0 | 18.0 | 0.55 | 1.17 | 1.17 | 97 | 1004.4 |
| 20260507193108 | 51 | 207 | 8.0 | 17.0 | 0.52 | 1.03 | 1.03 | 98 | 1005.3 |
| 20260507191554 | 50 | 218 | 6.0 | 12.0 | 0.52 | 0.86 | 0.86 | 97 | 1005.8 |
| 20260507190043 | 50 | 225 | 3.0 | 14.0 | 0.43 | 0.72 | 0.72 | 96 | 1005.5 |
| 20260507184541 | 53 | 271 | 5.0 | 15.0 | 0.34 | 0.61 | 0.61 | 97 | 1005.6 |
| 20260507183049 | 54 | 211 | 7.0 | 18.0 | 0.24 | 0.51 | 0.51 | 96 | 1005.8 |
| 20260507181539 | 55 | 193 | 11.0 | 20.0 | 0.06 | 0.33 | 0.33 | 95 | 1005.8 |
| 20260507180039 | 55 | 175 | 9.0 | 25.0 | 0.02 | 0.28 | 0.28 | 94 | 1004.9 |
| 20260507174538 | 56 | 136 | 11.0 | 22.0 | 0.00 | 0.28 | 0.28 | 92 | 1004.9 |
| 20260507173040 | 56 | 225 | 11.0 | 22.0 | 0.00 | 0.28 | 0.28 | 92 | 1004.9 |
| 20260507171534 | 56 | 166 | 9.0 | 19.0 | 0.00 | 0.28 | 0.28 | 93 | 1005.6 |
| 20260507170036 | 56 | 158 | 8.0 | 21.0 | 0.00 | 0.28 | 0.28 | 94 | 1005.9 |
| 20260507164531 | 56 | 208 | 8.0 | 20.0 | 0.00 | 0.28 | 0.28 | 94 | 1006.3 |